Pian Rosa, Italy

6:26 AM CEST on May 27, 2018 (GMT +0200)
Pian Rosa

Weather History for LIMH - July, 2013

Change the Weather History Date:

Thursday, July 25, 2013

  Actual Average Record
Temperature  
Mean Temperature 42 °F -  
Max Temperature 48 °F 38 °F 51 °F (2006)
Min Temperature 36 °F 29 °F 23 °F (2011)
Degree Days  
Heating Degree Days 23    
Moisture  
Dew Point 31 °F    
Average Humidity 62    
Maximum Humidity 76    
Minimum Humidity 37    
Precipitation  
Precipitation 0.00 in - - ()
Sea Level Pressure  
Sea Level Pressure 30.58 in    
Wind  
Wind Speed 6 mph ()    
Max Wind Speed 13 mph    
Max Gust Speed -    
Visibility 6.1 miles    
Events      
Averages and records for this station are not official NWS values.
T = Trace of Precipitation, MM = Missing Value Source: Averaged Metar Reports

Daily Weather History Graph

Daily Weather History Graph

Search for Another Location

Airport or City:

Astronomy

Jul. 25, 2013 Rise Set
Actual Time 6:03 AM CEST 9:06 PM CEST
Civil Twilight 5:28 AM CEST 9:42 PM CEST
Nautical Twilight 4:42 AM CEST 10:27 PM CEST
Astronomical Twilight 3:46 AM CEST 11:22 PM CEST
Moon 10:22 PM CEST (7/25) 9:28 AM CEST (7/25)
Length of Visible Light 16h 14m
Length of Day
15h 03m
Waning Gibbous, 90% of the Moon is Illuminated
Jul 25
Waning Gibbous
Jul 29
Last Quarter
Aug 6
New
Aug 14
First Quarter
Aug 21
Full

Hourly Weather History & Observations

Time (CEST) Temp. Windchill Dew Point Humidity Pressure Visibility Wind Dir Wind Speed Gust Speed Precip Events Conditions
12:55 AM 37.4 °F 32.1 °F 24.8 °F 60% 30.54 in - NNE 6.9 mph - N/A   Clear
1:55 AM 37.4 °F 30.8 °F 24.8 °F 60% 30.57 in - NE 9.2 mph - N/A   Clear
2:00 AM 37 °F - 25 °F 49%  in 6 mi NE 9.2 mph - -  
2:55 AM 37.4 °F 30.8 °F 26.6 °F 65% 30.54 in 6.2 mi ENE 9.2 mph - N/A   Scattered Clouds
3:55 AM 37.4 °F 32.1 °F 26.6 °F 65% 30.54 in 6.2 mi North 6.9 mph - N/A   Mostly Cloudy
4:55 AM 37.4 °F 33.8 °F 28.4 °F 70% 30.54 in 6.2 mi WNW 4.6 mph - N/A   Scattered Clouds
5:00 AM 38 °F - 28 °F 57%  in 6 mi WNW 4.6 mph - -   Mostly Cloudy
5:55 AM 37.4 °F 32.8 °F 28.4 °F 70% 30.54 in 6.2 mi West 5.8 mph - N/A   Partly Cloudy
6:55 AM 35.6 °F 27.1 °F 28.4 °F 75% 30.54 in 6.2 mi NE 12.7 mph - N/A   Partly Cloudy
7:55 AM 37.4 °F 32.8 °F 28.4 °F 70% 30.54 in 6.2 mi WNW 5.8 mph - N/A   Partly Cloudy
8:00 AM 38 °F - 28 °F 56%  in 25 mi WNW 5.8 mph - -   Scattered Clouds
8:55 AM 37.4 °F 30.3 °F 28.4 °F 70% 30.54 in 6.2 mi NE 10.4 mph - N/A   Partly Cloudy
9:55 AM 39.2 °F 33.6 °F 28.4 °F 65% 30.54 in 6.2 mi NE 8.1 mph - N/A   Partly Cloudy
10:55 AM 39.2 °F 35.9 °F 28.4 °F 65% 30.57 in 6.2 mi NE 4.6 mph - N/A   Scattered Clouds
11:00 AM 40 °F - 29 °F 53%  in 25 mi NE 4.6 mph - -   Partly Cloudy
11:55 AM 42.8 °F - 30.2 °F 61% 30.57 in 6.2 mi NE 2.3 mph - N/A   Scattered Clouds
12:55 PM 46.4 °F 45.2 °F 28.4 °F 50% 30.57 in 6.2 mi SW 3.5 mph - N/A   Mostly Cloudy
1:55 PM 48.2 °F - 30.2 °F 50% 30.60 in 6.2 mi SW 4.6 mph - N/A   Mostly Cloudy
2:00 PM 48 °F - 30 °F 37%  in 12 mi SW 4.6 mph - -   Mostly Cloudy
2:55 PM 46.4 °F 44.3 °F 33.8 °F 62% 30.60 in 6.2 mi SW 4.6 mph - N/A   Mostly Cloudy
3:55 PM 46.4 °F 42.4 °F 32.0 °F 57% 30.60 in 6.2 mi West 8.1 mph - N/A   Mostly Cloudy
4:55 PM 48.2 °F - 35.6 °F 62% 30.60 in 6.2 mi SSW 4.6 mph - N/A   Mostly Cloudy
5:55 PM 48.2 °F - 35.6 °F 62% 30.60 in 2.5 mi WSW 5.8 mph - N/A   Mist
6:55 PM 48.2 °F - 37.4 °F 66% 30.60 in 2.5 mi WSW 4.6 mph - N/A   Mist
7:55 PM 48.2 °F - 35.6 °F 62% 30.63 in 6.2 mi SW 2.3 mph - N/A   Scattered Clouds
8:55 PM 48.2 °F - 35.6 °F 62% 30.60 in 6.2 mi SSW 1.2 mph - N/A   Mostly Cloudy
9:55 PM 44.6 °F 42.2 °F 37.4 °F 76% 30.60 in 6.2 mi SSW 4.6 mph - N/A   Scattered Clouds
10:55 PM 42.8 °F 41.1 °F 35.6 °F 76% 30.63 in 6.2 mi SSW 3.5 mph - N/A   Partly Cloudy
11:00 PM 44 °F - 36 °F 64%  in 6 mi SSW 3.5 mph - -   Scattered Clouds
11:55 PM 42.8 °F 38.6 °F 35.6 °F 76% 30.63 in 6.2 mi SW 6.9 mph - N/A   Partly Cloudy